Date,TemperatureHighF,TemperatureAvgF,TemperatureLowF,DewpointHighF,DewpointAvgF,DewpointLowF,HumidityHigh,HumidityAvg,HumidityLow,PressureMaxIn,PressureMinIn,WindSpeedMaxMPH,WindSpeedAvgMPH,GustSpeedMaxMPH,PrecipitationSumIn
2013-1-1,30.1,25.0,19.7,28.1,21.2,16.2,92,85,77,30.15,30.01,20,6,20,0.00
2013-1-2,22.0,19.6,18.4,16.8,14.9,12.8,92,82,74,30.38,30.13,15,6,19,0.00
2013-1-3,26.2,20.2,7.7,23.0,15.7,4.9,91,83,70,30.36,30.21,22,6,24,0.00
2013-1-4,29.7,26.2,23.6,22.6,19.7,16.1,86,76,64,30.28,30.11,28,13,33,0.01
2013-1-5,27.8,25.5,23.7,23.4,21.2,19.1,90,84,78,30.48,30.22,19,4,19,0.00
2013-1-6,33.4,31.0,27.2,32.0,27.9,22.8,100,88,82,30.22,30.00,15,5,18,0.00
2013-1-7,32.3,27.9,19.3,30.0,24.2,16.9,93,86,78,30.53,30.21,16,4,18,0.00
2013-1-8,38.0,20.3,6.4,31.5,17.4,3.9,95,89,67,30.53,30.38,8,0,9,0.07
2013-1-9,44.9,28.7,12.4,36.9,23.8,10.4,100,83,63,30.57,30.21,28,5,33,0.03
2013-1-10,40.4,27.3,16.0,33.1,24.3,14.2,100,89,69,30.76,30.48,6,0,7,0.00
2013-1-11,44.5,36.8,32.8,38.3,32.4,25.8,97,85,58,30.48,29.94,11,1,13,0.45
2013-1-12,51.2,37.7,33.3,50.7,37.2,32.6,99,98,97,30.08,29.98,6,0,9,0.00
2013-1-13,64.7,51.3,37.7,57.8,49.2,37.1,100,93,77,29.98,29.64,19,2,20,0.05
2013-1-14,56.0,32.6,26.7,54.5,28.1,21.7,98,83,71,30.44,29.67,35,6,39,0.06
2013-1-15,31.5,27.2,24.4,22.4,20.2,18.2,82,75,63,30.53,30.22,10,0,10,0.00
2013-1-16,34.4,30.8,27.7,30.7,26.1,21.8,89,83,74,30.23,29.88,23,4,24,0.00
2013-1-17,32.3,30.0,21.7,27.5,24.6,18.1,90,80,71,30.23,29.98,25,7,25,0.00
2013-1-18,28.4,20.8,14.6,18.1,12.9,8.1,89,72,58,30.63,30.23,23,8,25,0.00
2013-1-19,48.9,39.4,28.4,32.3,24.4,16.3,64,55,45,30.31,29.65,30,9,30,0.00
2013-1-20,45.2,28.3,18.7,32.0,19.4,10.8,89,70,49,30.17,29.52,35,14,45,0.00
2013-1-21,19.0,16.4,10.5,15.9,11.3,4.2,92,80,62,30.16,30.01,26,8,26,0.00
2013-1-22,10.7,5.6,3.7,7.7,1.0,-1.4,97,81,72,30.51,30.12,32,13,35,0.00
2013-1-23,10.5,5.2,-0.3,5.2,0.5,-3.7,92,81,71,30.57,30.37,21,5,22,0.00
2013-1-24,15.3,3.9,-5.8,9.9,-0.8,-9.4,99,81,63,30.90,30.36,15,2,21,0.00
2013-1-25,13.2,6.4,-4.5,9.7,3.0,-7.8,89,86,73,30.89,30.34,12,1,13,0.00
2013-1-26,23.2,16.4,10.9,18.8,13.0,8.4,91,87,76,30.67,30.35,14,2,19,0.03
2013-1-27,29.7,21.6,13.4,20.3,16.1,11.5,92,80,57,30.77,30.50,10,0,11,0.02
2013-1-28,40.1,33.0,25.5,39.3,31.3,19.8,98,93,76,30.50,29.99,12,2,13,0.46
2013-1-29,47.0,37.0,32.4,46.2,36.6,31.8,99,98,97,30.07,29.74,10,0,10,0.47
2013-1-30,59.9,54.3,46.2,55.1,51.1,45.8,100,89,73,29.74,28.89,23,4,37,0.58
2013-1-31,49.5,24.7,16.5,46.6,21.9,13.8,94,89,78,29.86,28.88,40,15,42,0.24